Temperature
10 11 12 12 12 12 12 12 12 12 11 10 11 12 12 12 11 11 11 10 9 9 9 9 9 9 9 9 9 9 9 9 9 9 9 9 9 9 9 9 9 9 9 10
11 11 11 11 10 10 11 12 12 11 10 10 11 11 12 12 11 10 10 10 9 9 9 8 9 9 9 9 9 9 9 9 9 9 9 9 9 9 9 9 9 9 9 9
11 11 10 10 10 10 11 11 12 11 10 10 10 12 12 12 10 10 9 9 9 8 8 8 8 9 9 9 9 9 9 9 8 9 9 8 8 8 9 9 9 9 9 9
10 10 9 10 10 11 11 10 10 10 11 11 11 12 13 12 11 11 10 9 9 8 8 8 8 8 8 9 9 9 8 8 8 8 8 8 8 8 8 8 8 9 9 9
10 9 9 10 10 10 10 9 9 10 10 10 10 10 13 11 11 12 11 9 8 8 8 8 8 8 8 9 9 9 8 8 8 8 8 8 8 8 8 8 8 8 8 8
9 8 9 9 9 9 9 9 9 9 10 10 11 11 13 12 12 12 11 9 8 8 8 8 8 8 8 8 8 8 8 8 8 8 8 8 8 8 8 7 7 8 8 8
9 9 8 8 9 9 9 10 10 10 10 11 10 10 12 12 11 10 10 9 8 7 7 7 8 8 8 8 8 8 8 8 8 7 7 8 8 8 7 7 7 7 7 7
10 10 9 8 9 9 9 10 11 11 12 12 9 10 12 11 10 9 8 8 7 7 7 7 7 7 7 7 8 8 7 8 7 7 7 7 7 7 7 7 7 7 7 7
10 10 8 7 8 9 9 9 10 10 9 10 11 11 11 10 9 9 8 8 7 6 6 7 7 7 7 7 7 7 7 7 7 7 7 7 7 7 7 6 6 6 6 6
9 8 8 7 7 7 8 9 9 9 10 11 12 11 12 10 10 9 9 8 7 6 6 6 6 7 7 7 7 7 7 7 7 6 6 6 6 6 6 6 6 6 6 6
7 8 7 7 8 8 8 8 9 9 9 10 11 12 11 10 10 9 9 7 6 6 6 6 6 6 6 6 6 6 6 6 6 6 6 6 6 6 6 5 5 5 5 5
6 7 7 8 7 7 8 9 9 9 8 9 10 11 10 9 9 8 8 6 6 5 5 5 6 6 6 6 6 6 6 6 6 5 5 5 5 5 5 5 5 5 5 5
5 7 7 7 7 6 6 7 7 8 8 8 9 11 9 8 8 7 7 6 5 5 5 5 5 5 5 5 5 5 5 5 5 5 5 5 5 5 5 5 4 4 4 4
5 6 7 9 9 7 6 6 6 7 7 8 9 10 9 9 8 7 6 6 5 5 5 5 5 5 5 5 5 5 5 5 4 4 4 4 4 4 4 4 4 4 4 4
5 6 6 6 6 6 6 6 6 6 8 8 9 8 9 9 8 7 6 5 5 5 4 4 4 4 4 4 4 4 4 4 4 4 4 4 4 4 4 4 4 3 3 3
4 5 5 5 5 5 5 5 5 6 6 7 7 7 8 8 7 6 6 5 5 4 4 4 4 4 4 4 4 4 4 4 4 3 3 3 3 3 3 3 3 3 3 3
4 4 4 5 5 5 6 6 6 5 6 6 6 7 7 6 6 5 5 5 4 4 4 4 4 4 4 4 4 4 4 3 3 3 3 3 3 3 3 3 2 2 2 2
3 4 4 4 4 5 7 6 6 5 5 5 5 6 6 5 5 4 4 4 4 4 3 3 4 4 3 3 3 3 3 3 3 3 3 3 3 2 2 2 2 2 2 2
3 4 4 4 5 6 6 5 4 4 5 5 5 5 4 4 4 4 4 3 3 3 3 3 3 3 3 3 3 3 3 3 2 2 2 2 2 2 2 2 2 1 1 1
2 3 3 3 4 5 6 4 3 5 5 5 4 4 4 3 5 5 3 3 3 3 3 3 3 3 3 3 2 2 2 2 2 2 2 2 2 1 1 1 1 1 1 1
1 2 2 3 4 5 4 3 3 5 5 4 3 3 3 3 4 3 2 2 2 2 2 2 2 2 2 2 2 2 2 2 2 1 1 1 1 1 1 1 1 0 0 0
2 2 2 2 3 4 3 2 3 4 3 2 2 2 2 2 2 2 2 2 2 2 2 2 2 2 2 2 1 1 1 1 1 1 1 1 1 0 0 0 0 -0 -0 -0
2 2 2 3 3 3 2 2 2 2 2 2 1 1 1 1 1 1 1 1 1 1 1 1 1 1 1 1 1 1 1 1 1 0 0 0 0 0 -0 -0 -1 -1 -1 -1
1 1 1 1 2 2 1 1 1 1 1 1 1 1 1 1 1 1 1 1 1 1 1 1 1 0 0 0 0 0 0 0 0 0 -0 -0 -0 -0 -1 -1 -1 -1 -1 -1
1 0 1 1 1 1 1 1 1 1 1 1 1 0 0 0 0 1 0 0 0 0 0 0 0 0 0 0 0 -0 -0 -0 -0 -1 -1 -1 -1 -1 -1 -1 -1 -1 -1 -1
0 0 1 1 1 1 1 1 1 0 0 0 0 0 -0 -0 -0 -0 -0 -0 -0 -0 -0 -0 -0 -1 -0 -0 -0 -0 -1 -1 -1 -1 -1 -1 -1 -1 -1 -1 -1 -1 -1 -2
Wind_Speed
4 5 7 8 8 5 5 5 7 6 2 4 8 12 11 7 6 7 6 5 5 5 4 3 3 3 3 3 4 5 5 4 4 4 4 3 3 3 3 3 3 4 4 4
5 8 7 5 5 5 6 7 7 4 2 4 8 12 10 6 6 6 6 5 5 4 2 1 2 3 3 4 4 5 5 5 4 4 3 2 3 2 2 3 3 3 4 4
9 3 4 6 6 6 8 9 7 5 4 4 6 7 5 3 3 3 4 4 3 3 2 2 2 2 3 4 4 4 5 5 4 4 4 3 2 2 2 2 2 2 3 3
6 5 5 7 7 7 7 6 6 5 5 3 2 5 4 2 3 3 3 3 3 2 2 2 2 2 2 3 3 4 4 4 4 4 5 6 4 3 2 2 2 2 2 2
5 4 6 7 7 7 4 1 4 5 5 5 4 5 5 2 4 4 3 3 3 2 2 2 2 2 2 2 3 3 4 4 4 4 5 5 4 3 2 2 3 2 2 2
5 2 4 4 2 5 4 2 2 2 3 5 5 6 5 3 4 4 3 3 3 2 2 1 1 1 1 1 2 3 3 3 3 4 4 5 5 4 3 3 3 2 2 2
5 5 3 3 4 5 5 4 2 3 4 5 3 5 6 3 3 3 3 3 3 2 1 1 1 1 1 2 2 2 3 3 3 3 4 4 4 4 4 4 4 3 3 2
5 6 6 5 6 6 7 6 4 4 5 4 3 6 4 1 2 2 2 2 1 1 1 1 1 1 1 2 2 3 4 3 3 3 3 3 3 3 3 3 4 4 3 2
6 4 2 3 3 5 6 6 3 2 2 4 5 5 5 2 2 1 1 1 1 1 1 2 2 1 1 1 2 3 4 4 3 3 3 3 3 3 3 3 3 3 2 2
4 4 3 2 3 2 3 5 4 5 4 6 6 6 5 4 3 1 1 2 2 2 2 2 1 1 0 1 2 3 3 4 4 3 3 2 3 3 3 3 3 3 3 3
3 4 3 4 8 8 6 6 5 4 4 5 6 4 1 3 2 2 2 2 3 2 2 2 1 1 0 1 1 1 2 2 3 3 3 2 2 3 3 3 3 3 3 3
2 3 4 5 2 3 7 8 8 6 6 5 5 5 2 2 1 1 2 3 3 3 2 2 1 1 1 1 1 1 2 2 2 2 2 2 2 2 3 3 3 3 4 4
2 3 3 3 3 3 5 6 7 5 3 6 7 6 2 1 2 3 3 3 3 2 2 1 1 1 1 1 2 2 2 2 2 2 2 2 2 3 3 3 3 3 3 3
3 5 7 8 4 3 6 8 9 8 7 9 12 10 7 6 5 4 4 3 3 2 2 1 2 2 2 2 2 2 2 2 2 2 2 2 2 3 2 2 2 3 3 4
3 5 7 8 7 7 9 10 12 14 13 12 12 11 11 8 6 5 4 3 3 3 2 2 3 3 2 2 2 3 2 2 2 2 3 3 2 2 2 2 2 3 3 3
3 4 4 7 7 8 10 12 14 15 14 15 15 14 10 7 5 5 5 4 4 4 4 3 3 4 4 4 3 3 3 3 3 3 3 3 2 2 2 3 3 3 3 3
5 4 4 6 4 6 10 11 12 10 10 11 13 10 5 5 5 5 5 4 5 5 5 4 5 5 5 4 4 4 3 3 3 3 3 3 3 3 3 2 3 3 3 3
7 7 4 3 3 8 4 1 6 8 8 8 7 6 5 6 5 4 4 4 5 4 4 4 4 4 4 4 4 3 3 3 3 3 3 3 3 3 3 3 3 3 3 4
8 8 5 4 6 8 5 2 2 5 5 5 7 5 4 3 2 2 1 3 4 4 4 4 4 4 3 3 3 3 3 3 3 3 4 3 3 3 3 4 4 3 3 4
2 6 5 5 6 7 2 2 2 3 5 1 4 4 3 1 3 3 2 4 4 4 3 3 3 3 2 2 2 3 3 3 4 4 4 4 4 4 4 4 4 3 4 4
2 4 7 8 8 6 2 2 1 5 3 2 3 3 3 4 4 3 3 4 4 4 4 3 2 2 2 2 2 3 3 4 4 3 3 3 4 4 4 4 4 3 3 4
5 4 6 6 7 6 0 1 3 2 3 2 2 2 3 3 3 3 3 3 4 4 3 3 2 2 2 2 2 3 4 4 3 3 3 3 4 3 3 3 3 3 4 4
5 4 3 5 4 3 1 2 3 2 2 2 2 3 3 3 3 3 3 3 4 4 3 2 2 2 2 2 3 3 4 3 3 3 4 3 3 3 3 4 4 4 4 4
4 3 4 5 6 6 4 4 3 3 3 3 3 3 3 3 4 4 3 3 4 4 3 3 2 3 3 3 3 4 4 3 3 4 4 4 4 4 4 3 4 4 4 4
5 4 5 8 7 5 5 4 5 4 4 3 3 3 3 4 4 4 4 4 4 4 4 3 3 3 4 4 4 4 4 3 4 4 4 4 4 4 4 4 4 5 5 5
5 6 6 7 6 5 5 5 5 5 5 4 4 4 4 4 4 4 3 3 3 4 4 3 4 4 4 4 4 4 4 4 4 4 4 4 4 4 4 4 4 5 6 7
Wind_Direction
195 206 211 209 211 228 220 230 253 264 272 270 265 276 283 285 284 283 282 281 275 272 268 248 233 230 223 214 199 188 192 186 177 166 167 167 170 167 169 169 167 162 158 154
194 222 226 214 204 210 221 239 257 267 266 271 282 283 280 275 270 278 281 282 280 280 275 236 215 214 213 209 201 186 190 187 185 174 166 173 166 174 171 168 167 168 162 156
211 213 201 197 198 209 230 234 249 268 297 254 289 279 252 254 264 270 274 276 274 261 245 223 210 216 209 203 204 193 188 185 182 166 152 139 143 145 149 159 163 162 157 160
227 233 198 200 215 219 237 233 243 256 271 271 284 280 257 258 278 279 271 270 272 270 256 231 217 217 219 206 200 194 183 178 177 168 166 167 175 184 189 175 163 151 150 160
220 207 205 216 227 218 231 209 230 247 251 267 243 252 263 240 264 272 273 270 274 279 261 237 227 215 212 196 191 182 172 167 170 180 177 178 182 178 154 158 159 154 150 172
245 228 229 230 220 201 172 157 161 201 226 249 232 231 259 227 250 272 275 281 271 266 262 239 224 194 172 169 173 168 165 169 178 185 185 183 180 165 163 178 177 179 171 174
237 223 210 196 181 175 191 194 219 222 225 241 186 233 252 247 260 269 278 284 280 266 254 217 203 188 183 178 168 173 173 173 181 186 189 190 183 174 181 194 194 193 189 191
221 227 203 201 209 199 200 211 221 240 249 258 212 238 247 278 289 282 283 307 315 286 250 229 227 225 217 195 175 179 184 180 182 188 193 195 187 181 184 198 200 199 199 198
217 221 168 202 222 204 192 210 244 240 269 261 241 251 262 228 248 249 277 332 355 328 282 263 248 232 225 198 182 192 189 187 188 191 194 197 193 187 188 199 202 199 197 187
220 231 209 193 185 214 238 184 180 207 227 248 253 249 242 210 212 208 286 324 338 336 316 299 287 271 242 174 166 181 188 189 189 193 200 204 202 195 190 196 198 197 197 189
226 217 202 195 209 205 185 197 212 217 241 240 251 251 212 202 193 232 263 305 317 316 308 296 286 263 150 137 152 168 179 179 183 190 201 208 214 209 197 202 208 204 203 202
206 218 229 228 236 256 221 215 203 215 224 234 253 259 104 175 195 271 287 298 305 305 299 287 279 229 169 165 186 199 193 186 189 190 198 212 223 220 211 214 217 212 209 212
186 205 214 207 201 194 216 216 217 228 230 225 235 245 118 267 284 290 290 294 301 293 299 294 252 228 210 200 212 222 209 198 190 186 197 208 219 227 223 225 224 219 214 215
221 227 236 241 253 198 223 222 214 211 224 234 240 253 263 274 279 283 284 283 285 278 274 249 251 253 245 229 225 226 220 206 198 201 212 220 229 241 235 233 233 228 221 220
214 244 251 263 268 256 251 238 223 224 232 241 252 255 262 265 266 273 271 266 263 269 273 258 252 251 250 245 237 232 218 208 206 214 226 235 238 246 234 226 229 229 229 229
234 244 256 265 254 252 260 246 232 235 241 247 258 266 272 272 268 267 259 256 258 266 276 276 266 257 247 241 239 228 216 211 211 218 232 238 231 239 230 224 225 224 230 234
218 219 236 257 260 275 258 241 225 227 230 234 245 259 277 273 260 259 254 250 256 268 277 274 265 259 253 245 236 231 225 217 219 225 230 230 233 240 234 222 221 225 232 236
217 221 234 254 250 242 257 294 221 223 241 234 248 265 269 268 272 266 255 251 264 274 276 269 266 261 255 250 241 233 227 223 229 234 235 239 240 244 239 229 232 234 238 240
218 209 211 219 245 265 267 249 209 217 251 233 234 258 283 303 295 255 280 295 285 284 279 272 270 265 255 246 236 225 225 223 229 240 245 245 241 241 237 236 240 244 245 249
200 212 213 215 234 246 268 337 299 232 248 226 233 253 269 228 257 269 315 319 308 300 291 284 280 268 256 242 222 224 232 232 238 247 252 249 245 242 240 240 242 249 249 254
191 207 216 228 241 259 319 331 202 219 270 336 260 245 221 236 272 302 299 301 301 302 303 297 281 265 263 249 227 237 246 250 256 255 256 257 250 250 248 245 245 246 251 255
207 205 208 213 229 247 74 158 215 285 356 345 299 256 246 275 297 294 286 290 300 306 310 306 292 289 287 253 238 251 260 268 268 258 255 258 258 258 252 244 247 247 247 252
222 227 230 222 239 319 250 269 297 304 313 326 316 297 271 282 290 295 292 293 301 305 312 311 301 298 299 280 259 260 271 273 268 263 262 263 266 260 249 238 240 244 244 249
246 248 244 259 271 289 291 298 302 300 305 317 314 303 280 281 294 299 301 302 305 307 307 305 299 291 295 294 279 269 274 271 261 260 265 265 264 263 256 248 241 242 244 247
263 233 247 260 275 287 281 276 284 299 307 315 318 308 295 294 297 296 298 300 302 306 305 297 288 286 292 295 288 282 278 270 264 265 265 262 259 258 256 255 252 250 250 250
246 237 242 261 271 268 284 300 292 284 288 290 295 303 302 292 287 290 292 298 299 300 305 301 297 295 297 295 290 288 282 269 263 267 270 267 260 255 254 260 269 263 259 261
Height
1509 1508 1504 1503 1504 1503 1503 1503 1501 1501 1504 1505 1499 1496 1493 1493 1493 1492 1491 1490 1490 1489 1489 1489 1488 1489 1489 1489 1490 1490 1491 1492 1493 1493 1495 1496 1498 1499 1501 1502 1504 1505 1506 1507
1507 1503 1502 1504 1506 1506 1503 1502 1500 1502 1505 1504 1498 1493 1489 1490 1490 1490 1489 1488 1487 1487 1486 1486 1486 1486 1486 1487 1487 1487 1488 1489 1490 1492 1493 1495 1496 1497 1499 1500 1501 1503 1504 1505
1499 1501 1503 1504 1504 1504 1501 1500 1499 1501 1503 1502 1500 1488 1485 1486 1488 1488 1487 1486 1485 1485 1485 1484 1484 1484 1484 1485 1485 1486 1486 1487 1488 1490 1492 1493 1494 1495 1496 1497 1499 1501 1502 1503
1500 1501 1503 1502 1501 1500 1498 1500 1502 1502 1499 1495 1498 1489 1479 1482 1484 1484 1484 1484 1483 1483 1483 1483 1483 1482 1483 1483 1484 1485 1486 1486 1487 1489 1490 1491 1492 1493 1494 1495 1497 1498 1500 1501
1497 1500 1500 1499 1498 1500 1498 1502 1502 1501 1498 1498 1496 1494 1478 1481 1481 1480 1481 1482 1482 1482 1481 1481 1481 1481 1481 1482 1483 1483 1484 1485 1486 1487 1488 1489 1491 1492 1493 1494 1495 1496 1497 1498
1498 1500 1500 1498 1500 1501 1502 1502 1502 1502 1499 1497 1490 1490 1475 1476 1477 1477 1479 1481 1480 1480 1480 1480 1480 1480 1480 1480 1481 1481 1482 1483 1484 1485 1487 1488 1489 1489 1491 1492 1493 1494 1495 1496
1495 1497 1498 1499 1498 1500 1499 1497 1496 1495 1493 1485 1490 1489 1476 1474 1476 1478 1479 1479 1479 1479 1478 1478 1478 1478 1478 1478 1478 1479 1480 1481 1482 1484 1485 1486 1487 1488 1489 1490 1491 1492 1492 1493
1490 1490 1494 1496 1494 1493 1495 1492 1492 1488 1481 1477 1489 1483 1472 1475 1477 1478 1478 1478 1478 1477 1477 1476 1476 1476 1476 1476 1477 1477 1479 1479 1481 1482 1483 1484 1485 1486 1487 1488 1489 1490 1490 1490
1486 1487 1493 1494 1495 1493 1492 1492 1491 1491 1494 1488 1475 1474 1472 1474 1475 1476 1477 1477 1476 1476 1475 1475 1474 1474 1474 1474 1475 1476 1477 1478 1479 1480 1481 1482 1483 1483 1484 1486 1487 1487 1487 1487
1487 1489 1490 1494 1495 1495 1493 1490 1493 1491 1487 1478 1470 1470 1466 1469 1470 1473 1474 1475 1475 1475 1474 1473 1472 1472 1473 1473 1473 1475 1475 1476 1477 1478 1479 1480 1481 1481 1482 1483 1484 1484 1484 1484
1490 1488 1490 1492 1489 1487 1492 1492 1488 1485 1484 1477 1471 1464 1463 1466 1469 1471 1473 1473 1473 1473 1472 1472 1471 1471 1471 1471 1472 1473 1473 1474 1475 1476 1476 1477 1478 1479 1480 1480 1480 1481 1481 1482
1490 1487 1486 1486 1489 1489 1487 1484 1485 1484 1484 1482 1473 1467 1466 1468 1470 1472 1472 1473 1472 1472 1471 1470 1470 1470 1470 1470 1470 1471 1471 1472 1473 1474 1474 1475 1476 1476 1476 1477 1478 1478 1478 1478
1490 1488 1484 1482 1488 1491 1487 1485 1485 1484 1483 1480 1474 1466 1467 1469 1470 1471 1471 1471 1471 1470 1470 1469 1469 1468 1468 1468 1469 1469 1470 1471 1471 1472 1473 1473 1473 1474 1474 1474 1475 1475 1475 1475
1488 1485 1480 1473 1468 1477 1482 1483 1484 1484 1481 1474 1469 1463 1465 1466 1468 1469 1470 1470 1470 1469 1469 1468 1468 1467 1467 1467 1467 1468 1468 1469 1469 1470 1470 1470 1471 1471 1471 1471 1471 1472 1472 1472
1487 1483 1480 1478 1478 1478 1477 1477 1480 1479 1472 1470 1463 1464 1463 1464 1466 1467 1468 1468 1468 1468 1467 1466 1466 1466 1466 1466 1466 1466 1466 1467 1467 1468 1468 1468 1468 1468 1468 1468 1469 1469 1469 1469
1485 1483 1481 1479 1477 1477 1476 1473 1474 1474 1471 1469 1466 1465 1463 1464 1466 1466 1466 1466 1466 1465 1465 1464 1464 1464 1463 1463 1463 1464 1464 1464 1465 1465 1465 1465 1465 1465 1465 1465 1466 1466 1466 1465
1483 1482 1480 1473 1476 1475 1468 1463 1465 1466 1465 1465 1463 1461 1462 1463 1464 1464 1464 1464 1464 1463 1463 1462 1461 1461 1461 1460 1460 1461 1461 1461 1461 1462 1462 1462 1462 1462 1462 1462 1462 1462 1462 1462
1480 1479 1478 1474 1475 1472 1457 1460 1459 1461 1461 1462 1461 1461 1462 1462 1462 1462 1462 1462 1462 1461 1461 1460 1459 1458 1458 1457 1457 1458 1458 1458 1458 1458 1458 1459 1459 1459 1459 1459 1459 1459 1458 1458
1476 1475 1475 1473 1467 1458 1456 1460 1461 1461 1459 1460 1460 1460 1461 1461 1460 1459 1459 1459 1459 1459 1458 1457 1456 1456 1455 1455 1454 1454 1455 1455 1455 1455 1455 1455 1455 1455 1455 1455 1455 1455 1454 1454
1475 1474 1472 1470 1467 1459 1455 1460 1460 1460 1456 1457 1457 1458 1459 1460 1458 1457 1458 1457 1456 1456 1455 1455 1454 1453 1452 1452 1452 1452 1452 1452 1452 1452 1451 1452 1451 1451 1451 1451 1451 1451 1450 1450
1473 1472 1471 1467 1464 1454 1459 1460 1459 1458 1453 1456 1456 1456 1457 1457 1457 1457 1455 1455 1455 1454 1453 1452 1451 1450 1450 1449 1449 1449 1449 1448 1448 1448 1448 1448 1448 1448 1448 1448 1447 1447 1447 1446
1466 1466 1466 1465 1464 1460 1459 1459 1458 1456 1456 1455 1455 1455 1455 1455 1455 1454 1454 1453 1452 1451 1451 1449 1448 1448 1447 1447 1447 1446 1446 1446 1446 1445 1445 1444 1444 1444 1444 1444 1443 1443 1443 1443
1464 1463 1460 1460 1458 1457 1457 1457 1457 1456 1456 1455 1454 1454 1454 1453 1453 1452 1452 1451 1450 1449 1448 1447 1446 1445 1445 1444 1444 1443 1443 1443 1442 1442 1441 1441 1440 1440 1440 1440 1439 1439 1439 1439
1463 1463 1462 1460 1457 1457 1457 1456 1455 1455 1455 1454 1453 1453 1452 1452 1451 1450 1449 1449 1448 1447 1446 1445 1444 1443 1443 1442 1441 1441 1440 1439 1439 1438 1437 1437 1437 1436 1436 1436 1436 1436 1435 1435
1459 1461 1459 1457 1455 1455 1454 1454 1454 1454 1453 1452 1452 1451 1451 1450 1449 1448 1447 1446 1445 1445 1444 1443 1442 1441 1440 1439 1439 1438 1437 1436 1436 1435 1434 1434 1433 1433 1432 1432 1432 1432 1432 1432
1457 1457 1455 1451 1452 1453 1452 1452 1452 1451 1451 1450 1450 1449 1448 1448 1447 1446 1445 1444 1443 1442 1441 1440 1439 1439 1438 1437 1436 1435 1434 1433 1433 1432 1431 1430 1430 1429 1429 1428 1428 1427 1428 1428